Tracking 30510 objects as of 22-May-2025
HD Live streaming from Space Station
objects crossing your sky now

HULIANWANG DIGUI-13

Track HULIANWANG DIGUI-13 now!
10-day predictions


NORAD ID: 62973
Int'l Code: 2025-030C
Perigee: 1,125.4 km
Apogee: 1,128.1 km
Inclination: 50.0 °
Period: 107.7 minutes
Semi major axis: 7497 km
RCS: Unknown
Launch date: February 11, 2025
Source: People's Republic of China (PRC)
Launch site: Wenchang Satellite Launch Center (WSC)
Your satellite tracking list
Your tracking list is empty




NASA's NSSDC Master Catalog

Two Line Element Set (TLE):
1 62973U 25030C   25141.56232055 -.00000073  00000-0  10236-3 0  9994
2 62973  50.0039 200.6058 0001824 353.3009   6.7842 13.37230874 13767
Source of the keplerian elements: AFSPC